CAPE
0 0 0 0 0 0 0 0 0 0 0 0 0 0 0 0 0 0 0 0 0 0 0 0 0 0 0 0 0 0 0 0 0 0 1 10 8 12 0 0 0 15 48
0 0 0 0 0 0 0 0 0 0 0 0 0 0 0 0 0 0 0 0 0 0 1 0 0 1 0 0 0 0 0 0 0 0 0 0 0 1 5 0 0 0 28
0 0 0 0 0 0 0 0 0 0 0 0 0 0 0 0 0 0 0 0 0 2 0 0 0 0 0 0 0 0 0 0 0 0 0 0 0 0 0 0 6 1 14
0 0 0 0 0 0 0 0 0 0 0 0 0 0 0 0 0 0 0 0 0 0 0 0 0 0 0 0 0 0 0 0 0 0 3 7 3 0 1 0 0 1 0
0 0 0 0 0 0 0 0 0 0 0 0 0 0 0 0 0 0 0 0 0 0 0 0 0 0 0 0 0 0 0 0 0 0 1 0 2 4 0 0 2 0 0
0 0 0 0 0 0 0 0 0 0 0 0 0 0 0 0 0 0 0 0 0 0 0 0 0 0 0 0 0 0 0 0 3 0 0 0 1 1 0 0 0 0 4
0 0 0 0 0 0 0 0 0 0 0 0 0 0 0 0 0 0 0 0 0 0 1 1 0 0 0 0 0 0 0 0 0 0 1 2 3 0 0 0 0 1 0
0 0 0 0 0 0 0 0 0 0 0 0 0 0 0 0 0 1 0 0 0 0 0 1 2 1 0 0 0 0 0 0 0 0 0 0 0 0 0 0 0 0 4
0 0 0 0 0 0 0 0 0 0 0 0 0 0 0 0 0 0 0 3 1 2 2 0 1 3 1 1 1 1 0 0 0 0 0 0 0 0 0 0 6 21 13
0 0 0 0 0 0 0 0 0 0 0 0 0 0 0 0 0 0 0 5 5 3 0 0 0 2 1 0 1 2 1 0 0 0 0 0 0 0 0 0 0 14 4
0 0 0 0 0 0 0 0 0 0 0 0 0 0 0 0 0 1 3 5 6 5 1 0 1 0 0 0 0 1 3 0 0 0 1 0 0 0 0 0 0 3 1
0 0 0 0 0 0 0 0 0 0 0 0 0 0 0 0 1 3 4 4 2 5 1 1 0 0 0 0 0 1 2 0 1 2 1 2 2 2 1 0 0 0 0
0 0 0 0 0 0 0 0 0 0 0 0 0 0 0 0 1 3 4 0 0 2 1 0 0 0 0 0 0 0 0 3 3 2 3 2 1 0 1 1 4 0 0
0 0 0 0 0 0 0 0 0 0 0 0 0 0 0 3 3 3 5 0 2 0 0 1 1 1 2 2 0 0 0 0 0 1 3 2 1 2 2 2 5 17 9
0 0 0 0 0 0 0 0 0 0 0 0 0 1 3 4 4 2 1 1 2 0 0 2 2 4 4 4 4 3 2 0 0 1 1 1 1 2 1 5 61 73 35
0 0 0 0 0 0 0 0 0 0 0 0 0 0 1 0 1 1 0 0 0 0 3 6 6 5 5 4 6 8 7 5 2 0 0 0 0 2 10 24 37 87 59
0 0 0 0 0 0 0 0 0 0 0 0 0 0 0 0 0 0 0 0 0 1 7 5 5 4 3 4 3 4 9 9 5 0 0 0 0 0 0 2 4 42 29
0 0 0 0 0 0 0 0 0 0 0 0 0 0 0 0 0 0 0 0 0 2 4 4 3 4 3 5 3 5 10 8 10 7 2 0 3 1 2 1 0 28 30
0 0 0 0 0 0 0 0 0 0 0 0 0 0 0 0 0 0 0 2 3 3 2 2 2 2 2 2 3 3 4 5 9 11 8 4 3 2 1 23 35 58 6
0 0 0 0 0 0 0 0 0 0 0 0 0 0 0 0 0 0 0 0 0 0 1 1 1 1 1 1 2 3 4 6 10 12 12 8 3 2 23 45 55 13 7
0 0 0 0 0 0 0 0 0 0 0 0 0 0 0 0 0 0 1 0 0 0 1 1 1 1 1 1 2 3 4 4 6 10 11 10 4 1 3 27 19 8 2
0 0 0 0 0 0 0 0 0 0 0 0 0 0 0 0 0 0 0 0 0 1 1 1 1 1 1 1 1 2 4 10 9 9 7 7 5 2 2 3 29 5 1
0 0 0 0 0 0 0 0 0 0 0 0 0 0 0 0 0 0 0 0 0 1 0 0 1 1 1 2 1 1 2 6 6 5 8 6 6 3 1 3 4 1 2
0 0 0 0 0 0 0 0 0 0 0 0 0 0 0 0 0 0 0 0 0 0 0 0 1 1 1 2 0 1 1 1 3 6 6 6 5 3 0 2 1 1 0
0 0 0 0 0 0 0 0 0 0 0 0 0 0 0 0 0 0 0 0 0 0 0 0 1 0 0 1 0 0 1 2 3 3 5 7 7 6 0 0 15 2 0
0 0 0 0 0 0 0 0 0 0 0 0 0 0 0 0 0 0 0 0 0 0 0 0 0 1 1 1 0 0 1 2 2 0 2 5 9 7 7 1 49 24 0
CIN
-0 -0 -0 -0 -0 -0 -0 -0 -0 -0 -0 -0 -0 -0 -0 -0 -0 -0 -0 -0 -0 -0 -0 -0 -0 -0 -0 -0 -0 -0 -0 -0 -0 -0 -0 -0 -2 -8 -0 -0 -0 -72 -67
-0 -0 -0 -0 -0 -0 -0 -0 -0 -0 -0 -0 -0 -0 -0 -0 -0 -0 -0 -0 -0 -0 -14 -0 -0 -16 -0 -0 -0 -0 -0 -0 -0 -0 -0 -0 -0 -0 -20 -0 -0 -0 -59
-0 -0 -0 -0 -0 -0 -0 -0 -0 -0 -0 -0 -0 -0 -0 -0 -0 -0 -0 -0 -4 -5 -0 -0 -0 -0 -0 -0 -0 -0 -0 -0 -0 -0 -0 -0 -0 -0 -0 -0 -0 -51 -54
-0 -0 -0 -0 -0 -0 -0 -0 -0 -0 -0 -0 -0 -0 -0 -0 -0 -0 -0 -0 -0 -0 -0 -0 -0 -0 -0 -0 -0 -0 -0 -0 -0 -0 -0 -0 -1 -5 -9 -0 -0 -1 -9
-0 -0 -0 -0 -0 -0 -0 -0 -0 -0 -0 -0 -0 -0 -0 -0 -0 -0 -0 -0 -0 -0 -0 -0 -0 -0 -0 -0 -0 -0 -0 -1 -0 -0 -0 -0 -0 -0 -0 -0 -0 -0 -0
-0 -0 -0 -0 -0 -0 -0 -0 -0 -0 -0 -0 -0 -0 -0 -0 -0 -0 -0 -0 -0 -0 -0 -0 -0 -0 -0 -0 -0 -0 -0 -0 -0 -0 -0 -0 -0 -1 -0 -0 -0 -0 -0
-0 -0 -0 -0 -0 -0 -0 -0 -0 -0 -0 -0 -0 -0 -0 -0 -0 -0 -0 -0 -0 -0 -0 -0 -0 -0 -0 -0 -0 -0 -0 -0 -0 -0 -0 -0 -0 -0 -0 -0 -0 -0 -0
-0 -0 -0 -0 -0 -0 -0 -0 -0 -0 -0 -0 -0 -0 -0 -0 -0 -3 -0 -0 -0 -0 -0 -0 -0 -0 -0 -0 -0 -0 -0 -0 -0 -0 -0 -0 -0 -0 -0 -0 -0 -0 -0
-0 -0 -0 -0 -0 -0 -0 -0 -0 -0 -0 -0 -0 -0 -0 -0 -0 -0 -0 -0 -0 -0 -0 -0 -0 -0 -0 -0 -0 -0 -0 -0 -0 -0 -0 -0 -0 -0 -0 -0 -0 -0 -0
-0 -0 -0 -0 -0 -0 -0 -0 -0 -0 -0 -0 -0 -0 -0 -0 -0 -0 -0 -0 -0 -0 -0 -0 -0 -0 -0 -0 -0 -0 -0 -0 -0 -0 -0 -0 -0 -0 -0 -0 -19 -0 -0
-0 -0 -0 -0 -0 -0 -0 -0 -0 -0 -0 -0 -0 -0 -0 -0 -0 -0 -0 -0 -0 -0 -0 -0 -0 -0 -0 -0 -0 -0 -0 -0 -0 -0 -0 -0 -0 -0 -0 -0 -0 -5 -0
-0 -0 -0 -0 -0 -0 -0 -0 -0 -0 -0 -0 -0 -0 -0 -0 -0 -0 -0 -0 -0 -0 -0 -0 -0 -0 -0 -0 -0 -0 -0 -0 -0 -0 -0 -0 -0 -0 -0 -0 -0 -0 -0
-0 -0 -0 -0 -0 -0 -0 -0 -0 -0 -0 -0 -0 -0 -0 -0 -0 -0 -0 -0 -0 -0 -0 -0 -0 -0 -0 -0 -0 -0 -0 -0 -0 -0 -0 -0 -0 -0 -0 -0 -0 -0 -0
-0 -0 -0 -0 -0 -0 -0 -0 -0 -0 -0 -0 -0 -0 -0 -0 -0 -0 -0 -0 -0 -0 -0 -0 -0 -0 -0 -0 -0 -0 -0 -0 -0 -0 -0 -0 -0 -0 -0 -5 -2 -1 -6
-0 -0 -0 -0 -0 -0 -0 -0 -0 -0 -0 -0 -0 -0 -0 -0 -0 -0 -0 -0 -0 -0 -0 -0 -0 -0 -0 -0 -0 -0 -0 -0 -0 -0 -0 -0 -0 -0 -0 -12 -0 -0 -17
-0 -0 -0 -0 -0 -0 -0 -0 -0 -0 -0 -0 -0 -0 -0 -0 -0 -0 -0 -0 -0 -0 -0 -0 -0 -0 -0 -0 -0 -0 -0 -0 -0 -0 -0 -0 -0 -25 -0 -5 -4 -0 -12
-0 -0 -0 -0 -0 -0 -0 -0 -0 -0 -0 -0 -0 -0 -0 -0 -0 -0 -0 -0 -0 -0 -0 -0 -0 -0 -0 -0 -0 -0 -0 -0 -0 -0 -0 -0 -0 -32 -0 -27 -16 -9 -28
-0 -0 -0 -0 -0 -0 -0 -0 -0 -0 -0 -0 -0 -0 -0 -0 -0 -0 -0 -0 -0 -0 -0 -0 -0 -0 -0 -0 -0 -0 -0 -0 -0 -0 -0 -2 -3 -1 -16 -23 -0 -18 -4
-0 -0 -0 -0 -0 -0 -0 -0 -0 -0 -0 -0 -0 -0 -0 -0 -0 -0 -0 -0 -0 -0 -0 -0 -0 -0 -0 -0 -0 -0 -0 -0 -0 -0 -0 -0 -0 -0 -15 -15 -5 -0 -9
-0 -0 -0 -0 -0 -0 -0 -0 -0 -0 -0 -0 -0 -0 -0 -0 -0 -0 -0 -0 -0 -0 -0 -0 -0 -0 -0 -0 -0 -0 -0 -0 -0 -0 -0 -0 -0 -0 -6 -12 -55 -16 -5
-0 -0 -0 -0 -0 -0 -0 -0 -0 -0 -0 -0 -0 -0 -0 -0 -0 -0 -0 -0 -0 -0 -0 -0 -0 -0 -0 -0 -0 -0 -0 -0 -0 -0 -0 -0 -0 -0 -0 -1 -4 -9 -0
-0 -0 -0 -0 -0 -0 -0 -0 -0 -0 -0 -0 -0 -0 -0 -0 -0 -0 -0 -0 -0 -0 -0 -0 -0 -0 -0 -0 -0 -0 -0 -0 -0 -0 -0 -0 -0 -0 -0 -6 -0 -14 -0
-0 -0 -0 -0 -0 -0 -0 -0 -0 -0 -0 -0 -0 -0 -0 -0 -0 -0 -0 -0 -0 -0 -0 -0 -0 -0 -0 -0 -0 -0 -0 -0 -0 -0 -0 -0 -0 -0 -1 -0 -5 -0 -0
-0 -0 -0 -0 -0 -0 -0 -0 -0 -0 -0 -0 -0 -0 -0 -0 -0 -0 -0 -0 -0 -0 -0 -0 -0 -0 -0 -0 -0 -0 -0 -0 -0 -0 -0 -0 -0 -0 -0 -0 -0 -0 -0
-0 -0 -0 -0 -0 -0 -0 -0 -0 -0 -0 -0 -0 -0 -0 -0 -0 -0 -0 -0 -0 -0 -0 -0 -0 -0 -0 -0 -0 -0 -0 -0 -0 -0 -0 -0 -0 -0 -0 -0 -9 -2 -0
-0 -0 -0 -0 -0 -0 -0 -0 -0 -0 -0 -0 -0 -0 -0 -0 -0 -0 -0 -0 -0 -0 -0 -0 -0 -0 -0 -0 -0 -0 -0 -0 -0 -0 -0 -0 -0 -0 -0 -0 -0 -8 -0
Wind_Speed
14 15 15 15 17 18 20 23 24 25 27 30 32 35 36 36 35 34 36 35 33 32 32 33 32 33 33 32 33 33 35 38 49 52 47 45 46 47 47 48 48 46 45
17 18 18 19 20 22 24 25 25 26 28 31 33 35 36 36 35 35 36 34 33 34 31 31 33 33 31 32 34 36 35 36 42 50 48 49 49 45 43 45 45 44 41
21 22 23 23 24 25 25 26 25 27 30 31 33 36 37 36 36 34 34 34 33 33 33 33 35 33 32 32 33 34 35 36 39 43 47 46 48 46 48 45 43 43 44
24 26 28 30 28 27 26 27 28 28 29 32 34 36 36 34 34 33 32 34 34 33 31 30 31 30 30 31 32 31 32 34 36 38 40 41 42 42 42 45 48 44 45
26 27 29 28 28 26 26 26 28 30 32 34 35 35 34 32 32 34 34 34 34 34 33 33 31 29 29 28 30 31 32 35 36 37 38 41 41 41 44 43 45 43 45
26 26 27 28 28 29 29 31 33 34 35 36 36 34 33 32 34 36 37 37 36 36 36 34 31 29 30 29 29 28 29 33 36 37 37 38 38 39 40 43 45 44 40
27 28 29 30 31 32 32 32 34 35 34 35 33 33 32 33 36 38 40 38 38 35 32 32 32 29 27 28 29 27 25 25 27 31 34 34 35 33 38 43 43 44 43
29 30 31 32 33 33 33 32 32 32 32 31 32 32 32 34 36 39 40 38 37 32 31 31 30 30 31 28 25 23 25 24 25 25 27 28 28 30 33 39 43 45 45
30 31 31 31 31 31 30 31 31 31 30 30 31 32 34 34 36 40 39 39 38 33 36 38 34 33 28 20 20 21 23 22 22 20 19 20 23 22 27 35 42 43 41
32 32 31 29 29 28 29 30 30 29 29 31 31 33 33 33 38 38 38 39 40 41 45 39 38 29 16 20 20 16 17 19 21 22 23 18 15 15 29 38 41 45 42
31 32 30 29 28 27 28 28 28 28 29 29 31 31 32 34 37 37 39 40 39 43 36 39 38 17 21 16 17 15 13 15 17 18 22 23 28 25 24 29 35 41 44
31 31 29 28 26 26 25 26 28 28 29 30 30 30 32 34 35 36 39 39 40 35 34 33 43 45 46 28 29 14 8 9 12 16 19 22 25 27 29 29 31 38 40
29 30 29 27 26 25 24 25 25 27 28 30 29 31 32 34 34 35 36 38 39 40 37 33 43 45 45 29 29 25 19 11 4 6 16 20 18 31 27 32 32 39 43
27 28 28 26 25 23 22 24 24 26 28 29 28 29 30 33 33 35 35 37 37 40 42 37 43 44 44 43 31 26 20 14 6 1 6 3 16 25 25 25 33 39 39
26 25 24 24 23 22 21 22 23 24 26 27 27 27 29 31 32 33 33 35 37 39 39 40 44 46 45 43 42 41 23 13 6 8 10 13 16 22 25 27 27 36 39
24 23 22 21 21 21 21 21 22 22 25 26 26 26 27 30 31 32 32 33 36 39 39 42 44 46 48 41 33 28 12 24 4 13 16 18 17 19 18 21 21 31 34
23 22 21 20 21 21 22 22 23 24 24 27 28 27 27 29 31 31 32 32 34 37 39 40 44 47 46 35 28 25 12 18 26 9 10 15 17 19 21 23 26 28 32
22 21 20 20 21 21 22 23 22 24 26 26 28 28 29 29 30 31 32 31 33 35 37 40 42 44 41 30 31 27 19 17 16 18 6 14 18 19 22 25 28 28 30
21 21 21 20 21 21 22 22 23 25 25 26 28 30 30 30 30 31 32 31 33 34 35 38 39 34 29 21 17 19 24 21 16 15 13 13 14 19 23 26 28 24 24
21 21 21 20 20 21 22 23 24 25 27 28 29 31 31 31 32 32 32 31 31 32 33 34 35 35 28 27 18 18 19 24 21 15 16 13 14 13 22 27 24 22 28
20 21 20 21 21 22 23 24 25 26 27 28 29 31 33 31 32 32 32 32 31 32 32 32 33 34 34 28 24 20 22 20 21 15 15 16 15 12 13 23 26 25 25
22 22 22 23 23 24 25 25 26 27 28 29 29 30 32 32 32 33 33 33 32 32 32 31 32 33 32 34 29 24 24 24 20 19 16 10 10 9 12 17 25 24 26
24 23 23 24 24 25 26 26 27 28 29 29 30 31 31 32 32 33 33 33 32 32 32 31 31 32 30 30 30 27 27 26 19 17 15 12 9 9 11 13 19 13 5
24 24 24 24 25 26 27 27 28 29 29 30 30 31 32 32 33 33 34 34 33 32 32 32 32 32 31 29 29 30 23 20 23 26 22 15 14 10 12 13 12 7 6
25 25 26 26 26 27 28 28 29 30 30 31 31 32 32 33 33 34 34 34 34 34 33 33 33 33 32 31 31 31 29 26 24 21 17 17 15 12 8 18 15 4 3
24 25 26 27 26 27 29 29 30 31 31 32 32 32 32 34 35 35 35 35 35 35 35 34 33 34 33 32 33 31 30 29 26 25 23 15 17 11 11 9 13 9 6
Wind_Direction
324 322 322 323 326 327 327 326 325 326 324 321 324 323 323 322 323 322 319 319 318 318 317 315 315 314 311 310 308 305 301 299 294 291 292 293 290 287 286 283 280 279 279
322 320 320 320 321 323 323 324 325 324 323 321 323 324 323 323 324 321 320 321 320 319 318 317 316 317 313 310 309 307 303 302 300 296 294 290 286 289 289 285 279 275 278
320 316 315 316 317 318 320 322 325 323 321 322 323 322 322 323 323 324 323 323 323 321 320 318 317 317 314 313 311 309 306 305 303 299 297 295 290 287 281 281 279 274 269
318 315 313 312 314 317 319 320 321 324 324 323 323 323 324 325 326 327 328 327 326 327 326 324 322 319 316 314 312 309 308 306 304 303 300 299 294 288 284 279 272 272 266
323 318 318 320 321 322 324 327 325 324 323 323 323 324 327 328 329 328 328 329 330 329 328 325 321 316 312 308 309 308 307 306 304 302 301 298 296 291 281 277 270 272 266
325 323 321 319 320 321 321 321 320 321 321 322 322 324 326 329 326 324 325 328 330 328 328 327 323 316 310 301 296 294 298 302 303 302 301 299 298 291 285 273 267 262 267
324 321 319 317 316 317 318 320 321 322 325 324 323 325 327 326 324 324 325 330 332 335 336 333 330 325 315 305 298 291 288 290 295 301 300 299 299 296 285 271 263 257 259
325 321 318 316 314 315 317 321 323 326 329 327 324 328 328 324 325 328 329 333 337 343 341 337 334 331 329 322 305 294 296 292 296 298 296 299 299 297 286 272 262 256 259
326 323 321 319 318 319 320 321 323 327 329 324 323 327 323 324 331 329 332 336 338 348 346 343 339 333 332 325 321 298 294 291 295 290 289 295 298 297 290 277 261 251 253
328 325 323 322 321 321 321 321 322 326 326 322 322 321 323 329 329 329 335 338 337 344 340 351 349 349 325 325 325 305 284 282 293 296 298 292 284 290 290 271 259 247 249
332 329 327 324 320 321 323 323 325 324 324 325 321 322 327 330 329 326 332 334 343 340 359 357 355 331 307 326 326 309 286 288 285 289 294 297 292 296 295 281 261 246 242
336 333 330 326 325 324 327 326 323 323 324 323 322 324 325 329 331 327 322 328 340 359 6 6 352 324 329 4 1 353 309 280 286 290 291 291 290 290 287 284 265 245 241
341 340 336 330 324 326 330 326 327 325 326 325 329 326 320 330 329 328 325 328 331 342 1 9 357 344 342 13 16 19 23 22 348 280 298 292 288 283 286 276 261 243 233
345 346 348 338 327 326 328 328 331 331 327 326 328 320 325 331 333 332 331 335 335 348 350 8 359 350 358 356 16 21 26 34 55 25 210 225 308 286 278 268 246 229 226
342 343 349 346 342 333 330 337 337 339 340 338 331 329 331 329 329 330 332 343 342 346 2 9 8 2 354 353 350 351 29 34 70 92 109 142 148 193 232 236 233 219 217
342 337 334 330 332 335 340 342 350 352 352 346 342 338 341 342 334 335 338 346 350 354 5 8 9 8 3 344 331 323 346 320 123 87 112 127 158 192 211 229 227 216 218
340 324 319 314 319 327 333 338 342 347 346 348 346 343 341 339 339 339 343 348 354 359 3 1 9 9 1 341 334 331 358 322 329 106 130 168 181 194 216 217 219 216 220
344 344 342 340 329 334 336 334 338 343 344 340 344 343 342 342 343 343 345 354 354 353 358 360 358 6 352 339 339 337 337 333 325 317 245 183 194 197 203 215 219 226 217
350 350 348 345 346 349 343 343 350 346 343 342 345 346 344 345 344 346 347 352 354 352 351 358 356 345 339 343 355 342 336 334 326 315 295 279 262 229 208 204 211 219 218
346 345 346 340 338 343 344 346 345 346 349 350 353 351 346 350 349 347 346 345 346 349 344 345 344 344 337 339 352 350 341 340 335 326 313 285 271 257 207 205 217 218 212
348 346 345 346 344 344 348 349 349 351 351 353 354 356 352 356 353 351 347 344 340 340 339 335 339 340 340 336 338 344 340 338 335 331 320 307 291 269 242 198 198 201 201
1 358 357 356 355 353 354 353 354 354 353 352 352 352 354 356 356 353 350 345 341 337 336 331 332 334 333 337 332 335 339 337 338 334 328 307 289 266 211 201 196 200 197
9 7 6 4 3 0 359 358 356 354 355 353 351 351 352 351 352 349 348 343 339 337 336 333 330 330 327 331 332 332 334 333 328 332 336 316 294 264 223 211 205 200 163
19 16 12 7 5 3 360 357 356 355 355 354 353 351 350 349 349 346 345 343 339 336 336 334 331 327 326 323 326 330 326 331 326 330 328 327 324 283 215 203 193 197 135
22 16 13 9 5 3 360 358 354 351 351 350 349 348 348 347 346 344 342 341 339 337 332 332 332 327 323 323 323 324 323 325 328 329 331 330 331 332 261 210 202 176 96
21 18 13 9 6 3 359 357 353 351 350 348 347 347 349 347 345 344 341 339 337 336 332 330 328 327 325 323 321 319 321 323 323 328 332 326 338 323 320 273 235 246 262